OneWeb SL0263

operational
NORAD ID: 48981 Int'l Des: 2021-060 Owner: ONEWEBN Country: UK Constellation: oneweb
LEOCIRCULARPOLARONEWEB_TYPE

OneWeb SL0263について

説明を読み込み中...

リアルタイム位置

3D地球を読み込み中...

次回通過

高度履歴

Altitude vs Time

uPlot chart will show altitude changes over time

軌道要素

1 48981U 21060Q 25258.49409069 -.00000030 00000-0 -11123-3 0 9998
2 48981 87.8973 283.5375 0001427 95.5845 264.5448 13.16594341203440
Epoch: Sep 15, 2025 • Age: 21 hours

現在のステータス

高度 1204.0 km
速度 7.25 km/s
衛星直下点 -14.78°S, 25.25°W
打ち上げ日 Jul 1, 2021
運用期間 4.2 years
タイプ internet

技術仕様

分類 Payload
質量 148.00 kg
乾燥質量 140.00 kg
総質量 148.00 kg
長さ 1.30 m
直径 1.00 m
スパン 5.00 m
形状 Trapezoid+2 pan
製造者 ONEWUS
バスタイプ ARROW
フェーズステータス In Orbit
所有者/国 ONEWEBN/UK

大規模コンステレーション

Loading constellations...